BAW126 ESSL-ESSV

Flight info

Callsign BAW126
Flight time 0h 26m
Altitude 15000
Route ROGMI
Aircraft B744/H-SDE3FGHIM1M2RWXY/LB1

Departure

Time 2026-05-08 07:01
Airport Linköping City Airport (ESSL)

Arrival

Time 2026-05-08 07:27
Airport Visby Airport (ESSV)
Time Latitude Longitude Altitude Speed Heading
2026-05-08 06:39 58.40803 15.65745 166 ft 0 kts 260°
2026-05-08 06:49 58.40803 15.65741 164 ft 0 kts 260°
2026-05-08 06:52 58.40807 15.65785 164 ft 4 kts 260°
2026-05-08 06:53 58.40807 15.65842 164 ft 3 kts 288°
2026-05-08 06:53 58.40806 15.65852 164 ft 0 kts 289°
2026-05-08 06:56 58.40826 15.65810 162 ft 7 kts 350°
2026-05-08 06:57 58.40885 15.65840 161 ft 11 kts 40°
2026-05-08 06:57 58.40926 15.65932 160 ft 0 kts 54°
2026-05-08 06:57 58.40926 15.65931 160 ft 0 kts 54°
2026-05-08 06:58 58.40933 15.65951 158 ft 6 kts 55°
2026-05-08 06:58 58.40958 15.66047 158 ft 9 kts 71°
2026-05-08 06:59 58.40982 15.66184 158 ft 12 kts 73°
2026-05-08 06:59 58.40992 15.66348 159 ft 13 kts 108°
2026-05-08 06:59 58.40954 15.66528 160 ft 16 kts 115°
2026-05-08 06:59 58.40909 15.66726 165 ft 18 kts 112°
2026-05-08 07:00 58.40858 15.66955 172 ft 22 kts 113°
2026-05-08 07:00 58.40735 15.67532 181 ft 75 kts 112°
2026-05-08 07:00 58.40480 15.68731 182 ft 116 kts 112°
2026-05-08 07:00 58.40140 15.70291 239 ft 131 kts 113°
2026-05-08 07:01 58.39770 15.72063 604 ft 152 kts 112°
2026-05-08 07:01 58.39360 15.73918 1298 ft 151 kts 114°
2026-05-08 07:01 58.38923 15.75837 1732 ft 159 kts 114°
2026-05-08 07:01 58.38455 15.77977 2219 ft 182 kts 113°
2026-05-08 07:02 58.37954 15.80300 2651 ft 192 kts 111°
2026-05-08 07:02 58.37693 15.82981 3120 ft 214 kts 96°
2026-05-08 07:02 58.37524 15.85920 3678 ft 231 kts 98°
2026-05-08 07:02 58.37294 15.89062 4318 ft 237 kts 98°
2026-05-08 07:03 58.37037 15.92364 5414 ft 236 kts 98°
2026-05-08 07:03 58.36770 15.95731 6527 ft 241 kts 98°
2026-05-08 07:03 58.36498 15.99161 7584 ft 264 kts 98°
2026-05-08 07:03 58.36220 16.02660 8662 ft 269 kts 98°
2026-05-08 07:04 58.35941 16.06222 9762 ft 275 kts 97°
2026-05-08 07:04 58.35656 16.09869 10766 ft 283 kts 97°
2026-05-08 07:04 58.35358 16.13706 11485 ft 295 kts 97°
2026-05-08 07:04 58.35039 16.17817 12107 ft 325 kts 97°
2026-05-08 07:05 58.34696 16.22210 12699 ft 346 kts 97°
2026-05-08 07:05 58.34338 16.26879 13185 ft 366 kts 97°
2026-05-08 07:05 58.33959 16.31799 13606 ft 383 kts 97°
2026-05-08 07:05 58.33556 16.36937 13959 ft 401 kts 98°
2026-05-08 07:06 58.33130 16.42267 14397 ft 408 kts 98°
2026-05-08 07:06 58.32690 16.47702 14914 ft 418 kts 98°
2026-05-08 07:06 58.32241 16.53185 15548 ft 419 kts 98°
2026-05-08 07:06 58.31793 16.58649 16245 ft 420 kts 98°
2026-05-08 07:07 58.31343 16.64119 16932 ft 419 kts 98°
2026-05-08 07:07 58.30897 16.69529 17256 ft 419 kts 98°
2026-05-08 07:07 58.30445 16.74991 17349 ft 418 kts 98°
2026-05-08 07:07 58.29990 16.80448 17345 ft 417 kts 98°
2026-05-08 07:08 58.29535 16.85868 17347 ft 414 kts 98°
2026-05-08 07:08 58.29081 16.91250 17345 ft 413 kts 98°
2026-05-08 07:08 58.28624 16.96635 17347 ft 411 kts 98°
2026-05-08 07:08 58.28166 17.02014 17345 ft 413 kts 98°
2026-05-08 07:09 58.27707 17.07380 17348 ft 412 kts 99°
2026-05-08 07:09 58.27245 17.12758 17348 ft 411 kts 99°
2026-05-08 07:09 58.26781 17.18119 17347 ft 412 kts 99°
2026-05-08 07:09 58.26315 17.23489 17347 ft 412 kts 99°
2026-05-08 07:10 58.25847 17.28843 17348 ft 411 kts 99°
2026-05-08 07:10 58.25377 17.34210 17346 ft 412 kts 99°
2026-05-08 07:10 58.24904 17.39572 17349 ft 411 kts 99°
2026-05-08 07:10 58.24430 17.44918 17348 ft 412 kts 99°
2026-05-08 07:11 58.23953 17.50273 17348 ft 411 kts 99°
2026-05-08 07:11 58.23474 17.55617 17343 ft 411 kts 99°
2026-05-08 07:11 58.22993 17.60967 17343 ft 410 kts 99°
2026-05-08 07:11 58.22510 17.66306 17343 ft 410 kts 99°
2026-05-08 07:12 58.22031 17.71580 17301 ft 398 kts 99°
2026-05-08 07:12 58.21566 17.76674 17064 ft 388 kts 99°
2026-05-08 07:12 58.21108 17.81664 16816 ft 381 kts 99°
2026-05-08 07:12 58.20651 17.86612 16577 ft 380 kts 99°
2026-05-08 07:13 58.20168 17.91515 16271 ft 379 kts 103°
2026-05-08 07:13 58.19143 17.96084 15897 ft 377 kts 122°
2026-05-08 07:13 58.17418 17.99763 15532 ft 374 kts 141°
2026-05-08 07:13 58.15193 18.02275 15160 ft 373 kts 156°
2026-05-08 07:14 58.12806 18.03986 14679 ft 371 kts 161°
2026-05-08 07:14 58.10300 18.05439 14210 ft 375 kts 164°
2026-05-08 07:14 58.07800 18.06728 13590 ft 369 kts 165°
2026-05-08 07:14 58.05326 18.07960 13003 ft 381 kts 165°
2026-05-08 07:15 58.02805 18.09217 12524 ft 367 kts 165°
2026-05-08 07:15 58.00258 18.10501 11965 ft 374 kts 165°
2026-05-08 07:15 57.97791 18.11746 11494 ft 361 kts 164°
2026-05-08 07:15 57.95390 18.12991 10960 ft 356 kts 163°
2026-05-08 07:16 57.92975 18.14284 10486 ft 377 kts 163°
2026-05-08 07:16 57.90341 18.15687 10045 ft 396 kts 163°
2026-05-08 07:16 57.87801 18.17050 9654 ft 375 kts 163°
2026-05-08 07:16 57.85378 18.18367 9189 ft 360 kts 163°
2026-05-08 07:17 57.82892 18.19716 8846 ft 362 kts 163°
2026-05-08 07:17 57.80514 18.20966 8464 ft 347 kts 166°
2026-05-08 07:17 57.78022 18.21395 8019 ft 372 kts 183°
2026-05-08 07:17 57.75507 18.20630 7520 ft 358 kts 192°
2026-05-08 07:18 57.73125 18.19454 7207 ft 338 kts 195°
2026-05-08 07:18 57.71029 18.18223 7218 ft 295 kts 198°
2026-05-08 07:18 57.69177 18.17051 7016 ft 281 kts 197°
2026-05-08 07:18 57.67315 18.15922 6698 ft 281 kts 196°
2026-05-08 07:19 57.65473 18.14931 6534 ft 276 kts 195°
2026-05-08 07:19 57.63637 18.13926 6422 ft 275 kts 195°
2026-05-08 07:19 57.61821 18.12953 6161 ft 266 kts 195°
2026-05-08 07:19 57.59986 18.11971 5871 ft 275 kts 194°
2026-05-08 07:20 57.58218 18.11040 5604 ft 257 kts 194°
2026-05-08 07:20 57.56545 18.10151 5171 ft 239 kts 194°
2026-05-08 07:20 57.55056 18.09374 5034 ft 207 kts 193°
2026-05-08 07:20 57.53723 18.08688 4693 ft 201 kts 192°
2026-05-08 07:21 57.52350 18.08424 4421 ft 196 kts 167°
2026-05-08 07:21 57.51123 18.09599 4279 ft 212 kts 133°
2026-05-08 07:21 57.50370 18.11845 4046 ft 196 kts 110°
2026-05-08 07:21 57.49923 18.14166 3955 ft 192 kts 106°
2026-05-08 07:22 57.49492 18.16425 3653 ft 176 kts 108°
2026-05-08 07:22 57.49039 18.18568 3598 ft 185 kts 106°
2026-05-08 07:22 57.48938 18.21019 3340 ft 197 kts 71°
2026-05-08 07:22 57.49797 18.22749 3039 ft 172 kts 33°
2026-05-08 07:23 57.50821 18.23654 2916 ft 154 kts 23°
2026-05-08 07:23 57.51818 18.24315 2837 ft 156 kts 22°
2026-05-08 07:23 57.52836 18.25018 2661 ft 151 kts 24°
2026-05-08 07:23 57.53832 18.25735 2608 ft 157 kts 24°
2026-05-08 07:24 57.54851 18.26439 2438 ft 154 kts 24°
2026-05-08 07:24 57.55836 18.27184 2363 ft 155 kts 24°
2026-05-08 07:24 57.56832 18.27867 2147 ft 146 kts 24°
2026-05-08 07:24 57.57766 18.28541 1936 ft 147 kts 25°
2026-05-08 07:25 57.58722 18.29245 1680 ft 153 kts 24°
2026-05-08 07:25 57.59741 18.29988 1400 ft 152 kts 24°
2026-05-08 07:25 57.61610 18.31286 961 ft 143 kts 23°
2026-05-08 07:26 57.62258 18.31722 830 ft 146 kts 24°
2026-05-08 07:26 57.63509 18.32551 665 ft 141 kts 26°
2026-05-08 07:26 57.64416 18.33266 415 ft 141 kts 27°
2026-05-08 07:26 57.65338 18.33940 238 ft 143 kts 24°
2026-05-08 07:27 57.66182 18.34562 156 ft 102 kts 20°
2026-05-08 07:27 57.66566 18.34835 153 ft 38 kts 22°
2026-05-08 07:27 57.66732 18.34960 151 ft 39 kts 22°
2026-05-08 07:27 57.66956 18.35131 155 ft 28 kts 21°
2026-05-08 07:28 57.67074 18.35227 157 ft 8 kts 342°
2026-05-08 07:28 57.67065 18.35132 158 ft 13 kts 188°
2026-05-08 07:28 57.66954 18.35098 158 ft 19 kts 195°
2026-05-08 07:28 57.66815 18.35006 156 ft 25 kts 200°
2026-05-08 07:29 57.66608 18.34857 151 ft 37 kts 201°
2026-05-08 07:29 57.66341 18.34672 153 ft 45 kts 200°
2026-05-08 07:29 57.66098 18.34505 157 ft 21 kts 200°
2026-05-08 07:29 57.65992 18.34429 155 ft 6 kts 221°
2026-05-08 07:30 57.65971 18.34322 155 ft 11 kts 278°
2026-05-08 07:30 57.65996 18.34163 155 ft 15 kts 290°
2026-05-08 07:30 57.65995 18.34031 153 ft 12 kts 224°
2026-05-08 07:30 57.65938 18.33940 152 ft 9 kts 276°
2026-05-08 07:31 57.65950 18.33903 153 ft 4 kts 333°
2026-05-08 07:31 57.65953 18.33900 153 ft 0 kts 333°